Location: Newark
(45.2500°N, 7.5833°E)
Time: 13:09:24
(UTC+00:00)

A-11 Canister half - Pass Details

Date: 27 January 2020
Orbit: 1524 x 1684 km, 47.3° (Epoch: 24 February)

Event Time Altitude Azimuth Distance (km) Brightness Sun altitude
Rises 15:30:04 0° 211° (SSW) 4,660 13.0 8.0°
Reaches altitude 10° 15:33:18 10° 205° (SSW) 3,681 12.3 7.5°
Maximum altitude 15:41:45 42° 139° (SE) 2,086 9.8 6.3°
Drops below altitude 10° 15:50:21 10° 73° (ENE) 3,754 10.5 5.1°
Sets 15:53:40 0° 67° (ENE) 4,761 10.9 4.6°
